Weather in Tupitsyno

Russia / Komi Republic     61°59′51″N   50°24′55″E
temp.,
°C
wind,
m/s
gust,
m/s
humid.,
%
clouds,
%
prec.,
mm/h
press.,
hPa
HPBL,
m
7 may, fri
fri700:00+4ese2767100 0.0 1009188
03:00+4ese3988100 0.5 1007234
06:00+6se3993100 0.0 1006313
09:00+12ssw4877100 0.0 1007729
12:00+14ssw4771100 0.4 10071093
15:00+14wsw3568100 0.7 1008784
18:00+13w0177100 0.1 100759
21:00+9wsw3593100 1.3 1007242
8 may, sat
sat800:00+7w4791100 2.1 10101052
03:00+5sw39914 2.4 1012412
06:00+6wsw488410 0.0 1014475
09:00+11wsw46628 0.0 10161237
12:00+14wsw35435 0.0 10171701
15:00+15ssw24365 0.0 10172155
18:00+14sse364595 0.0 1016377
21:00+10se3863100 0.0 1015176
9 may, sun
sun900:00+8ese31366100 0.0 1014334
03:00+10se51461100 0.0 1012517
06:00+10se51471100 0.0 1011561
09:00+13sse61471100 0.0 1010971
12:00+18s71752100 0.0 10082257
15:00+14s71778100 1.0 10091565
18:00+13s61580100 0.7 10101355
21:00+11ssw51082100 0.9 1012930
10 may, mon
mon1000:00+8w5887100 0.3 1015859
03:00+5wnw4889100 0.6 1018801
06:00+5w497919 0.1 1021745
09:00+10w474911 0.1 10231757
12:00+12w5834100 0.0 10232674
15:00+12w474053 0.0 10251988
18:00+11wsw375467 0.0 10251291
21:00+7sw277830 0.1 1025129
11 may, tue
tue1100:00+6ssw297882 0.0 1025193
03:00+7sw31078100 0.0 1024369
06:00+7ssw3992100 0.5 1024462
09:00+8sw41193100 0.9 1023520
12:00+17wsw61264100 0.0 10211094
15:00+19w61355100 0.0 10201866
18:00+19w512565 0.0 10211603
21:00+15wsw41271100 0.0 1021449